Back to catalog

CZ-4 DEB

AliveSSO
NORAD 35327·DEBRIS·🇨🇳 China

Launched Oct 14, 1999 from Taiyuan Satellite Launch Center

Loading…

Next Passes (next 24 hours)

TLE

AgingSource: Space-Track

Epoch: Sep 7, 2026, 11:23 UTC

1 35327U 99057SF  26250.47457346  .00001624  00000-0  31098-3 0  9992
2 35327  98.4631 343.0038 0071118 216.3446 143.2914 14.63694321725375

Track CZ-4 DEB in real time with AllMySat

Download on the App Store